Аэропорт: Павлодар. Павлодар

ICAO: UASP

METAR:
2019/03/26 13:00
UASP 261300Z 12004MPS CAVOK 04/01 Q1022 R21/0///60 NOSIG RMK QFE755/1007
METAR:
2018/05/04 03:06
TAF TAF UASP 040200Z 0403/041209 14012MPS 9999 BKN020CB OVC100 
      TEMPO 0403/0406 12017MPS 3100 -SHRA SCT010 OVC020CB 
      TEMPO 0406/0412 17020MPS 3100 -SHRA BKN006 OVC020CB